Location: Gorze? G�rny
(49.8500°N, 19.5000°E)
Time: 05:23:43
(UTC+00:00)

USA 281 - Pass Details

Date: 13 May 2021
Orbit: 1078 x 1081 km, 106.0° (Epoch: 18 June)

Event Time Altitude Azimuth Distance (km) Brightness Sun altitude
Exits shadow 23:41:47 18° 147° (SSE) 2,397 4.7 -20.1°
Maximum altitude 23:46:57 83° 61° (ENE) 1,095 3.2 -19.9°
Drops below altitude 10° 23:53:34 10° 335° (NNW) 2,932 6.1 -19.5°
Sets 23:56:05 0° 335° (NNW) 3,892 6.8 -19.4°
